カタログに戻る

BREEZE-M R/B

運用中HEO
NORAD 41311·ROCKET BODY·🇷🇺 Russia

打ち上げ Jan 29, 2016 から Baikonur Cosmodrome

Loading…

次のパス (今後24時間)

TLE

最新Source: Space-Track

元期: Sep 14, 2026, 15:54 UTC

1 41311U 16005B   26257.66310737 -.00000079  00000-0  00000-0 0  9994
2 41311  12.6854  78.4632 5961289   8.7491 358.2402  2.17160130 84284

AllMySatでBREEZE-M R/Bをリアルタイム追跡

Download on the App Store